Погода Ростов Великий

Хотите узнать прогноз погоды Ростов Великий? Тогда Вам сюда: Погода Ростов Великий

Поиск расширенной информации на нашем сайте:

Полезная информация:

Новости сайта



02.01.2020
Опубликован Долгосрочный прогноз погоды по городам России и ближнего зарубежья на январь 2020 года.
Карты: Прогноз на январь и февраль 2020 года, Сравнение прогнозируемой аномалии приземной температуры воздуха на январь 2020 года по разным моделям.




Погода Ростов Великий - сегодня

Время (UTC), дата Ветер
(°,м/с) 
Видим.   Явления Облачность Т
(°С)
Тd
(°С)
f(%) Тe
(°С)
Pmin
(гПа)
dP
(гПа)
Po
(мм)
O2
(г/м3)
Тmin Tmax R s Состояние
почвы
06 05.04.20 310 (СЗ) 10 км    8/1 600 м средняя, верхняя 
[Sc|Ac trans|Ci fib]
+3.2 -5.4 53 +2  1019.5  755  301           
09 05.04.20 270 (З) 3{12}  10 км  в посл. час ливневой снег  10/5 600 м кучево-дожд., средняя, верхняя 
[Cb cap|Ac trans|Ci fib]
+2.4 -1.4 76 +1  1020.4  0.8  756  302           
12 05.04.20 350 (С) 6-16{17}  10 км  {ливн. осадки}  9/5 600 м кучево-дожд., средняя, верхняя 
[Cb cap|Ac trans|Ci fib]
+2.8 -4.6 58 1021.1  0.8  756  302           
15 05.04.20 290 (З) 4{16}  0500 м  ливневой снег  10/10 600 м кучево-дожд. 
[Cb cap]
-1.2 -2 94 -4  1022.4  757  307    +4  0.9     
18 05.04.20 330 (СЗ) 2{10}  10 км  {ливн. осадки}  1/1 600 м 
[Sc]
-1.8 -6.4 71 -3  1023.9  1.5  758  308           
21 05.04.20 320 (СЗ) 10 км    ясно 
-2.5 -8 66 -5  1024.7  0.7  759  309           
00 06.04.20 330 (СЗ) 10 км    ясно 
-3.2 -8 69 -5  1025.9  1.2  760  311           
03 06.04.20 330 (СЗ) 10 км    ясно 
-3.9 -8.2 72 -6  1027.7  1.7  761  312  -3.9    0.0  <0.5  мокрый или
старый снег
50-90% 
06 06.04.20 330 (СЗ) 10 км    ясно 
+0 -6.2 63 -2  1029.3  1.8  762  308           
09 06.04.20 310 (СЗ) 10 км    8/6 600 м кучево-дожд., верхняя 
[Cb cap|Cs]
+2.1 -8.6 45 -1  1029.8  0.5  763  306           
12 06.04.20 360 (С) 4{13}  10 км  ливневой снег  10/10 600 м кучево-дожд. 
[Cb cap]
+2 -14.6 28 1030.4  0.6  763  307           
15 06.04.20 360 (С) 3{11}  10 км  {ливн. осадки}  3/3 600 м 
[Sc]
+2.2 -15.6 25 +1  1031.3  0.9  764  307    +3.9  0.0     
18 06.04.20 тихо ()   10 км    ясно 
-2.3 -13.9 41 -2  1033.1  1.5  765  312           
21 06.04.20 тихо ()   10 км    ясно 
-4.6 -11.9 57 -5  1034.4  1.2  766  315           
00 07.04.20 тихо ()   10 км    ясно 
-6.2 -11 69 -6  1035.5  767  317           
03 07.04.20 тихо ()   20000 м    ясно 
-7.6 -10.2 82 -8  1036.5  0.9  767  319  -7.8         
06 07.04.20 270 (З) 10 км    3/0 средняя 
[Ac trans]
+2.1 -13.2 31 +1  1035.5  -0.5  767  308           
09 07.04.20 270 (З) 10 км    9/8 600 м средняя 
[Sc|Ac trans]
+5.1 -14.3 23 +4  1033.5  -1.9  766  304           
12 07.04.20 250 (З) 10 км    9/8 600 м средняя 
[Sc|Ac trans]
+5.3 -12.5 26 +5  1030.5  -2.9  763  303           
15 07.04.20 220 (ЮЗ) 10 км    10/0 верхняя 
[Cs]
+6.6 -6.9 37 +8  1026.8  -3.6  761  300    +7.2       
18 07.04.20 тихо ()   10 км    3/3 600 м 
[Sc]
+2.2 -3.4 66 +2  1023.7  -3.2  758  303           
21 07.04.20 210 (ЮЗ) н/о    н/о 
+2.2 -4.1 63 +3  1019.9  -3.8  755  302           
00 08.04.20 240 (ЮЗ) 10 км    ясно 
+2.5 -3.2 66 +2  1015.9  -3.9  752  301           
03 08.04.20 160 (Ю) 10 км    4/4 600 м 
[Sc]
+2 -3 69 +3  1012.9  -3  750  300  +1.1         
06 08.04.20 310 (СЗ) 10 км    10/4 600 м верхняя 
[Cu Sc|Ci fib]
+9.7 -3.5 39 +9  1011.4  -1.1  749  292           
Время (UTC), дата Ветер
(°,м/с) 
Видим.   Явления Облачность Т
(°С)
Тd
(°С)
f(%) Тe
(°С)
Pmin
(гПа)
dP
(гПа)
Po
(мм)
O2
(г/м3)
Тmin Tmax R s Состояние
почвы

Для получения пояснительной информации подведите курсор к названию столбца.

ПОГОДА Ростов Великий - архив

Всё, что Вы хотите узнать о погоде Ростов Великий - удобно и подробно!

Выберите нужную дату (начиная с 1 января 2019* года) и нажмите кнопку "Найти".
Будут отображены архивные сводки погоды по пункту Ростов Великий, начиная с указанной даты.


Отображать данные в формате CSV (для использования в таблицах Excel)


Внимание! Наш архив погоды предназначен исключительно для личного некоммерческого использования в познавательных целях. Если Вам необходимы официальные справки о состоянии погоды (для производственных, юридических, коммерческих и т.п. целей), обращайтесь в органы Росгидромета.

*Примечание: данная дата относится к архиву по метеостанциям СССР (Россия, СНГ, Балтия).
Архив по метеостанциям Зарубежной Европы и Азии (кроме Китая) хранится 10 дней, по другим регионам земного шара (Китай, Африка, Америка, Австралия, Океания) - 1 день.

Ростов Великий - район местоположения метеостанции


Название, широта, долгота, высота метеостанции:
Ростов Великий 57.2°ш. 39.4°д. 101 м над ур. моря [Российская Федерация]

Дополнительная информация

В oтличие oт бoльшинства пoгoдных сайтoв мы публикуем пoдрoбную метеoинфoрмацию в детальнoм прoфессиoнальнoм фoрмате.

Характеристики температуры и влажнoсти вoздуха измеряются на высoте 2 м в тени вдали oт зданий и деревьев.
Скoрoсть ветра измеряется на высoте 10 м (на урoвне рoста челoвека скoрoсть ветра ниже в 1.5-2 раза). Если метеoстанция нахoдится в гoрoде или в лесу, тo скoрoсть ветра занижена на 2-4 м/с пo сравнению с oткрытым местoм. Скoрoсть ветра над акватoриями крупных рек и oзёр, а также на вершинах хoлмoв на 2-5 м/с выше, чем в oбычных услoвиях.
Атмoсфернoе давление в разных тoчках местнoсти мoжет значительнo oтличаться oт давления на метеoстанции, в зависимoсти oт услoвий рельефа (при пoдъёме на 10 м давление пoнижается примернo на 1 мм рт.ст.).